Weather History for Glendale Luke AFB, AZ

Change the Weather History Date:

Friday, November 30, 2012

  Actual Average Record
Temperature  
Mean Temperature 62 °F -  
Max Temperature 74 °F 68 °F 87 °F (1949)
Min Temperature 49 °F 38 °F 26 °F (1948)
Degree Days  
Heating Degree Days 4    
Growing Degree Days 12 (Base 50)    
Moisture  
Dew Point 43 °F    
Average Humidity 53    
Maximum Humidity 67    
Minimum Humidity 35    
Precipitation  
Precipitation 0.00 in - - ()
Sea Level Pressure  
Sea Level Pressure 30.08 in    
Wind  
Wind Speed 4 mph (North)    
Max Wind Speed 7 mph    
Max Gust Speed -    
Visibility 10 miles    
Events      
Averages and records for this station are not official NWS values.
T = Trace of Precipitation, MM = Missing Value Source: NWS Daily Summary

Daily Weather History Graph

Daily Weather History Graph

Search for Another Location

Airport:

Trip Planner

Search our weather history database for the weather conditions in past years. The results will help you decide how hot, cold, wet, or windy it might be!

Date:

Astronomy

Nov. 30, 2012 Rise Set
Actual Time 7:15 AM MST 5:21 PM MST
Civil Twilight 6:48 AM MST 5:48 PM MST
Nautical Twilight 6:17 AM MST 6:19 PM MST
Astronomical Twilight 5:47 AM MST 6:49 PM MST
Moon 7:18 PM MST (11/30) 8:50 AM MST (11/30)
Length of Visible Light 11h 00m
Length of Day
10h 06m
Waning Gibbous, 96% of the Moon is Illuminated
Nov 30
Waning Gibbous
Dec 6
Last Quarter
Dec 13
New
Dec 19
First Quarter
Dec 28
Full

Hourly Weather History & Observations

Time (MST) Temp. Dew Point Humidity Pressure Visibility Wind Dir Wind Speed Gust Speed Precip Events Conditions
12:58 AM 55.4 °F 39.7 °F 56% 30.10 in 10.0 mi NNE 3.5 mph - N/A   Clear
1:58 AM 53.6 °F 39.9 °F 60% 30.10 in 10.0 mi NNW 6.9 mph - N/A   Clear
2:58 AM 52.7 °F 39.0 °F 60% 30.09 in 10.0 mi NNW 3.5 mph - N/A   Clear
3:58 AM 52.7 °F 39.4 °F 61% 30.09 in 10.0 mi NNE 3.5 mph - N/A   Clear
4:58 AM 51.1 °F 38.8 °F 63% 30.08 in 10.0 mi NNE 5.8 mph - N/A   Clear
5:58 AM 51.1 °F 39.7 °F 65% 30.10 in 10.0 mi NNW 4.6 mph - N/A   Clear
6:58 AM 49.5 °F 38.8 °F 67% 30.12 in 10.0 mi North 5.8 mph - N/A   Clear
7:58 AM 50.9 °F 40.5 °F 67% 30.13 in 10.0 mi North 5.8 mph - N/A   Clear
8:58 AM 57.2 °F 40.3 °F 53% 30.14 in 10.0 mi North 3.5 mph - N/A   Clear
9:58 AM 61.3 °F 40.1 °F 46% 30.15 in 10.0 mi NE 2.3 mph - N/A   Clear
10:58 AM 65.5 °F 39.6 °F 39% 30.14 in 10.0 mi Variable 1.2 mph - N/A   Clear
11:58 AM 68.9 °F 40.1 °F 35% 30.11 in 10.0 mi SE 3.5 mph - N/A   Clear
12:58 PM 72.0 °F 42.8 °F 35% 30.06 in 10.0 mi Variable 2.3 mph - N/A   Clear
1:58 PM 73.8 °F 46.6 °F 38% 30.05 in 10.0 mi East 2.3 mph - N/A   Clear
2:58 PM 74.5 °F 46.9 °F 38% 30.03 in 10.0 mi SW 3.5 mph - N/A   Clear
3:58 PM 73.8 °F 46.9 °F 38% 30.03 in 10.0 mi SSW 4.6 mph - N/A   Clear
4:58 PM 72.7 °F 46.8 °F 40% 30.03 in 10.0 mi SSW 3.5 mph - N/A   Clear
5:58 PM 70.0 °F 46.9 °F 44% 30.04 in 10.0 mi ENE 2.3 mph - N/A   Clear
6:58 PM 65.1 °F 49.1 °F 56% 30.04 in 10.0 mi North 2.3 mph - N/A   Clear
7:58 PM 62.6 °F 48.2 °F 59% 30.05 in 10.0 mi WNW 6.9 mph - N/A   Clear
8:58 PM 59.7 °F 48.4 °F 66% 30.06 in 10.0 mi North 1.2 mph - N/A   Clear
9:58 PM 59.2 °F 46.2 °F 62% 30.06 in 10.0 mi NE 3.5 mph - N/A   Clear
10:58 PM 59.0 °F 46.2 °F 63% 30.06 in 10.0 mi Calm Calm - N/A   Clear
11:58 PM 56.1 °F 43.5 °F 63% 30.05 in 10.0 mi North 6.9 mph - N/A   Clear